Regional Weather Roundup
Issued by NWS Newport/Morehead, NC

Current Version | Previous Version | Graphics & Text | Print | Product List | Glossary Off
Versions: 1 2 3 4 5 6 7 8 9 10 11 12 13 14 15 16 17 18 19 20 21 22 23 24 25 26 27 28 29 30 31 32 33 34 35 36 37 38 39 40 41 42 43 44 45 46 47 48 49 50

000
ASUS42 KMHX 270710
RWRMHX
WEATHER ROUNDUP FOR EASTERN NORTH CAROLINA
NATIONAL WEATHER SERVICE NEWPORT/MOREHEAD CITY NC
300 AM EDT WED AUG 27 2014

NOTE: "FAIR" INDICATES FEW OR NO CLOUDS BELOW 12,000 FEET
WITH NO SIGNIFICANT WEATHER AND/OR OBSTRUCTIONS TO VISIBILITY

NCZ015>017-031-032-045>047-102-103-270800-
NORTH COAST

CITY           SKY/WX    TMP DP  RH WIND       PRES   REMARKS
EDENTON        FOG       66  65  97 N5        30.02F VSB 1/2
ELIZABETH CITY MOCLDY    70  68  94 N6        30.02F FOG
KITTY HAWK     MOSUNNY   74  71  90 N7        29.99F
MANTEO         MOCLDY    73  71  91 N13       30.00F

$$

NCZ045>047-081-094-103-104-270800-
CENTRAL COAST

CITY           SKY/WX    TMP DP  RH WIND       PRES   REMARKS
FRISCO         MOCLDY    74  73  97 NE10G20   29.96F
SWANQUARTER      N/A     70 N/A N/A NW2       29.94F

$$

NCZ095-097-098-100-101-270800-
SOUTHERN COAST

CITY           SKY/WX    TMP DP  RH WIND       PRES   REMARKS
BEAUFORT       CLEAR     73  70  90 N12       29.97F
CEDAR ISLAND     N/A     75 N/A N/A N23       30.03S
JACKSONVILLE   CLEAR     68  65  90 N9        29.99F
NEWPORT        NOT AVBL
PINEY ISLAND   SUNNY     76  72  87 N15       29.97F
WILMINGTON     CLEAR     68  64  87 N8        30.00F


$$

NCZ011>013-027>030-043-044-078>080-089-090>093-098-270800-
COASTAL PLAIN

CITY           SKY/WX    TMP DP  RH WIND       PRES   REMARKS
AHOSKIE        PTCLDY    58  56  94 CALM      30.04F
CLINTON        NOT AVBL
ELIZABETHTOWN  CLEAR     65  64  94 CALM      30.02F
GOLDSBORO      CLEAR     64  64  98 NW5       30.01F
GREENVILLE     CLEAR     63  61  94 CALM      30.04F
HAVELOCK       MOCLDY    71  68  90 N10       30.00F
KENANSVILLE    CLEAR     64  63  94 CALM      30.03F
KINSTON        CLEAR     63  62  96 CALM      30.03F
NEW BERN       PTCLDY    70  66  87 N9        30.01F
RICHLANDS      CLEAR     66  63  88 N6        30.01F
ROANOKE RAPIDS NOT AVBL
ROCKY MOUNT    CLEAR     59  58  96 CALM      30.05F
WASHINGTON     CLEAR     67  65  96 NE3       30.02F
WHITEVILLE     CLEAR     68  63  84 CALM      30.01F

$$

AMZ130-135-150-152-154-156-158-170-250-252-270-ANZ085-086-088-633-658-670-270800-
MARINE OBSERVATIONS

STATION/POSITION TIME  TEMP    WIND        PRES    WAVE   SWELL
                       AIR SEA DIR/SP/G            HT/PER HT/PER
                 (UTC) (F)     (DEG/KT/KT) (MB)    (FT/S) (FT/S)
CHESAPEAKE LIGHT 0600   73      50/ 11/ 13 1017.8
BUOY 44014       0700   77 78   50/ 14/ 16 1015.5    5/13   5/13
DUCK             0700   75 76   30/ 13/ 15 1015.5
2E DUCK          0700                        N/A     5/12   2/12
OREGON INLET     0700   75 78   20/ 14/ 18 1015.4
BUOY 44095       0700      76                N/A     6/13   3/13
20E OREGON INLET NOT AVBL
HATTERAS CG      0700   76 78   20/ 14/ 20 1014.8
DIAMOND BUOY     0700   77      10/ 19/ 25 1013.4    8/10   5/10
CAPE LOOKOUT     0600   74      10/ 12/ 15 1014.9
BEAUFORT LAB     0700   73 79   10/  9/ 12 1014.4
30 SE NEW RIVER  0700   76 80   20/ 21/ 23 1014.0    7/ 8   5/ 8
5 SE WRIGHTSVILL 0700   70 81   20/ 17/ 21   N/A
BUOY 41002       0605   80 81   20/ 25/ 31 1007.6   11/ 8   5/14
BUOY 41004       0700   80 83   10/ 19/ 21 1013.7    7/10   5/10

$$



USA.gov is the U.S. government's official web portal to all federal, state and local government web resources and services.